Location: Umburanas
(4.5000°S, 37.9667°W)
Time: 00:21:27
(UTC+00:00)

CZ-3A R/B - Pass Details

Date: 19 November 2019
Orbit: 143 x 15716 km, 24.2° (Epoch: 05 December)

Event Time Altitude Azimuth Distance (km) Brightness Sun altitude
Rises 21:37:58 0° 296° (WNW) 19,469 9.8 -17.3°
Reaches altitude 10° 22:13:10 10° 295° (WNW) 14,245 8.9 -25.4°
Maximum altitude 22:57:45 80° 209° (SSW) 2,019 3.9 -35.4°
Enters shadow 22:59:43 61° 137° (SE) 1,807 3.6 -35.8°
